SCP
0 0 1 1 2 2 1 1 1 1 2 1 1 1 1 1 1 1 1 1 0 0 0 1 2 3 4 3 2 2 1 1 0 0 -0 0 0 0 0 0 0 0 0
0 0 1 2 2 2 2 1 1 1 1 1 1 1 1 1 1 1 1 1 1 1 2 3 1 1 0 0 0 0 1 1 0 0 -0 0 0 0 0 0 0 0 0
0 0 1 2 3 3 2 1 0 1 1 2 2 2 2 2 2 2 3 3 2 1 1 0 0 0 0 0 0 0 0 0 0 0 0 0 0 0 0 0 0 0 0
0 0 1 3 5 3 2 0 0 1 1 1 1 1 1 2 2 0 0 0 0 0 0 0 0 0 0 0 0 0 0 -0 -0 0 0 0 0 0 0 0 0 0 0
0 0 2 5 4 3 2 1 1 1 1 1 1 2 1 0 0 0 0 0 0 0 0 0 0 0 0 0 -0 -0 0 -0 0 0 0 0 0 0 0 0 0 0 0
0 0 3 4 4 3 2 2 1 1 1 1 2 1 0 0 0 0 0 0 0 0 0 0 0 0 -0 -0 0 -0 -0 0 0 0 0 0 0 0 0 0 0 0 0
0 0 3 3 4 4 3 2 2 2 1 1 1 1 0 0 0 0 0 0 0 0 0 0 0 -0 -0 0 -0 -0 0 0 0 0 0 0 0 0 0 0 0 0 0
0 0 3 5 4 3 2 3 2 2 1 1 1 1 1 0 0 0 0 0 0 0 -0 0 -0 -0 0 -0 -0 0 0 0 0 0 0 0 0 0 0 0 0 0 0
0 1 3 5 4 3 3 2 1 1 1 1 1 1 1 0 0 0 0 0 0 0 0 -0 0 -0 -0 0 0 0 0 0 0 0 0 0 0 0 0 0 0 0 0
0 2 4 5 5 4 2 2 1 1 1 1 1 1 0 0 0 0 0 0 0 0 -0 0 -0 0 0 0 0 0 0 0 0 0 0 0 0 0 0 0 0 0 0
1 4 7 6 3 4 3 3 2 2 1 1 0 0 0 0 0 0 0 0 0 0 0 0 0 0 0 0 0 0 0 0 0 0 0 0 0 0 0 0 0 0 0
3 5 3 3 3 3 2 2 1 1 0 0 0 0 0 0 0 0 0 0 0 0 0 0 0 0 0 0 0 0 0 0 0 0 0 0 0 0 0 0 0 0 0
3 2 2 2 2 1 1 0 0 0 0 0 0 0 0 0 0 0 0 0 0 0 0 0 0 0 0 0 0 0 0 0 0 0 0 0 0 0 0 0 0 0 0
2 2 1 0 0 0 0 0 0 0 0 0 0 0 0 0 0 0 0 0 0 0 0 0 0 0 0 0 0 0 0 0 0 0 0 0 0 0 0 0 0 0 0
0 0 0 0 0 0 0 0 0 0 0 0 0 0 0 0 0 0 0 0 0 0 0 0 0 0 0 0 0 0 0 0 0 0 0 0 0 0 0 0 0 0 0
0 0 0 0 0 0 0 0 0 0 0 0 0 0 0 0 0 0 0 0 0 0 0 0 0 0 0 0 0 0 0 0 0 0 0 0 0 0 0 0 0 0 0
0 0 0 0 0 0 0 0 0 0 0 0 0 0 0 0 0 0 0 0 0 0 0 0 0 0 0 0 0 0 0 0 0 0 0 0 0 0 0 0 0 0 0
0 0 0 0 0 0 0 0 0 0 0 0 0 0 0 0 0 0 0 0 0 0 0 0 0 0 0 0 0 0 0 0 0 0 0 0 0 0 0 0 0 0 0
0 0 0 0 0 0 0 0 0 0 0 0 0 0 0 0 0 0 0 0 0 0 0 0 0 0 0 0 0 0 0 0 0 0 0 0 0 0 0 0 0 0 0
0 0 0 0 0 0 0 0 0 0 0 0 0 0 0 0 0 0 0 0 0 0 0 0 0 0 0 0 0 0 0 0 0 0 0 0 0 0 0 0 0 0 0
0 0 0 0 0 0 0 0 0 0 0 0 0 0 0 0 0 0 0 0 0 0 0 0 0 0 0 0 0 0 0 0 0 0 0 0 0 0 0 0 0 0 0
0 0 0 0 0 0 0 0 0 0 0 0 0 0 0 0 0 0 0 0 0 0 0 0 0 0 0 0 0 0 0 0 0 0 0 0 0 0 0 0 0 0 0
0 0 0 0 0 0 0 0 0 0 0 0 0 0 0 0 0 0 0 0 0 0 0 0 0 0 0 0 0 0 0 0 0 0 0 0 -0 -0 -0 0 -0 0 0
0 0 0 0 0 0 0 0 0 0 0 0 0 0 0 0 0 0 0 0 0 0 0 0 0 0 0 0 0 0 0 0 0 0 0 0 -0 -0 0 0 0 0 0
0 0 0 0 0 0 0 0 0 0 0 0 0 0 0 0 0 0 0 0 0 0 0 0 0 0 0 0 0 0 0 0 0 0 0 0 0 0 0 0 0 0 0
0 0 0 0 0 0 0 0 0 0 0 0 0 0 0 0 0 0 0 0 0 0 0 0 0 0 0 0 0 0 0 0 -0 0 0 0 0 0 0 0 0 0 0
Wind_Speed_500mb
39 44 47 55 58 62 58 55 57 55 58 55 41 32 30 30 26 21 22 23 19 20 31 20 25 25 24 27 25 21 13 8 10 23 36 35 37 34 25 23 26 27 32
35 45 51 59 62 64 60 58 58 58 57 38 32 28 27 27 23 21 20 19 18 21 23 27 27 27 29 27 25 20 13 5 14 33 34 25 26 26 25 24 27 31 33
38 51 58 66 62 62 64 62 63 61 49 38 37 34 30 28 32 28 29 26 25 23 23 25 25 26 24 9 16 12 16 22 19 27 20 18 22 28 23 24 26 32 26
44 51 62 64 67 62 58 54 57 54 45 45 36 35 29 36 36 32 30 32 29 25 26 29 20 23 32 28 17 33 24 25 17 26 25 26 28 15 27 26 30 28 21
51 55 64 65 65 61 56 52 52 48 48 47 34 43 44 39 34 30 31 30 27 19 17 20 18 21 20 17 16 30 26 19 17 19 22 22 18 16 19 32 39 27 25
53 55 63 62 64 59 56 53 54 52 48 46 49 40 39 35 28 25 24 23 29 34 27 30 30 35 23 15 12 16 13 14 16 19 20 13 12 17 20 26 28 27 25
58 62 71 70 66 64 60 56 58 58 56 56 46 38 31 24 16 24 28 40 41 33 41 36 36 25 18 10 11 11 12 15 19 18 15 13 10 11 13 17 26 32 23
56 66 73 69 69 68 64 69 67 65 57 50 42 36 32 26 34 34 33 32 48 46 34 32 23 14 15 13 12 13 14 16 19 18 13 7 7 6 9 13 20 27 19
56 71 75 71 70 69 72 70 68 58 55 49 44 41 36 40 40 40 44 52 49 45 22 22 17 16 17 14 10 12 15 16 13 13 8 2 5 6 11 14 15 15 24
63 73 77 71 69 75 71 69 62 62 57 52 48 50 43 44 39 40 43 48 46 34 25 15 20 19 14 8 8 13 12 10 5 3 4 4 7 10 11 15 15 17 19
71 74 71 73 71 80 75 73 61 62 61 61 58 48 51 47 46 50 56 53 36 29 19 20 17 11 6 8 10 8 7 5 6 6 6 7 10 6 8 9 14 17 22
76 78 83 83 87 87 76 72 68 69 70 62 53 57 54 51 50 56 57 47 37 28 24 19 13 8 8 8 4 1 3 6 6 4 3 6 7 11 15 13 19 20 26
71 85 87 88 83 79 78 72 70 67 63 60 63 61 59 53 50 49 48 40 34 30 23 15 9 7 6 5 4 5 4 6 2 5 2 6 11 13 15 16 20 22 30
70 76 84 90 84 78 75 72 67 65 66 66 68 61 55 51 49 48 43 39 31 24 16 10 7 7 7 7 6 4 4 1 1 4 3 8 15 19 21 20 22 26 33
66 76 88 89 85 83 81 75 72 68 68 73 68 63 61 57 53 46 41 35 26 18 12 11 11 11 10 9 10 5 3 2 3 3 5 16 22 27 27 24 32 38 33
70 75 82 89 89 87 83 78 75 75 75 75 68 67 62 54 47 42 36 29 23 20 18 18 16 13 11 8 7 9 5 5 1 3 9 11 21 22 28 29 36 40 44
79 83 88 90 89 86 82 77 74 76 75 76 72 64 56 49 43 38 32 28 24 22 20 19 16 14 13 11 10 7 6 7 7 10 12 12 17 24 27 32 35 35 48
84 89 92 90 88 84 80 75 67 69 66 62 58 52 49 47 41 36 31 28 26 24 23 21 18 14 12 11 10 7 4 3 3 7 10 13 22 30 38 41 36 36 34
87 92 93 87 78 73 71 69 66 64 61 58 54 49 46 44 40 36 33 30 29 25 23 20 18 15 13 12 11 12 5 4 5 13 14 18 29 39 43 44 43 41 34
93 94 86 77 75 69 68 69 66 62 59 54 51 47 43 41 39 37 33 31 28 27 20 18 15 13 11 9 8 10 5 6 7 12 22 27 31 36 40 42 43 44 46
84 79 74 74 70 67 67 68 63 59 54 51 47 45 44 43 38 35 30 27 24 22 19 16 16 13 12 12 12 10 12 8 9 12 15 26 37 40 43 44 43 41 42
75 71 76 71 64 61 64 65 61 55 52 52 47 42 39 36 32 30 27 24 21 18 17 16 15 16 17 20 20 19 18 15 13 15 20 29 35 38 37 36 37 35 36
73 69 71 67 58 55 55 63 56 53 52 49 45 41 38 36 31 29 24 21 16 15 14 15 15 16 15 20 31 28 30 25 18 22 28 30 35 36 31 40 43 38 34
69 66 64 61 59 54 56 58 54 51 50 48 43 39 37 36 31 26 21 20 19 17 18 17 15 14 16 18 17 18 20 26 20 24 25 33 37 38 35 33 33 33 34
63 58 57 57 56 53 55 52 49 48 48 44 40 38 36 34 31 27 26 21 19 24 18 17 16 14 15 25 26 21 24 23 24 25 22 25 28 30 32 33 35 35 37
56 56 52 54 51 50 50 47 43 42 44 42 37 35 34 30 28 27 28 26 29 27 27 24 20 23 24 24 23 26 29 26 28 24 26 28 30 32 34 35 36 37 40
Wind_Direction_500mb
234 219 208 200 193 188 187 186 183 186 188 197 191 189 188 183 186 183 191 205 195 199 208 201 212 211 197 192 200 189 176 213 299 324 293 295 284 276 270 292 309 312 324
228 211 199 196 192 186 186 187 185 186 194 186 176 178 176 177 173 176 178 180 185 192 191 201 217 221 212 203 188 175 147 353 312 289 291 300 287 284 294 290 309 309 324
222 201 197 196 189 186 187 188 189 195 188 173 165 157 162 161 161 169 180 184 182 196 210 222 228 237 207 131 158 189 297 288 302 286 282 300 295 308 285 297 317 319 329
223 205 195 191 186 182 183 182 185 192 176 171 163 161 164 181 184 196 200 199 205 216 229 252 265 222 199 179 250 277 254 292 269 284 281 279 282 304 308 303 318 326 335
212 206 195 186 181 177 176 175 178 177 182 168 159 169 182 192 188 194 200 212 246 239 191 169 163 207 181 168 173 198 261 266 269 276 291 301 306 302 299 310 324 331 327
208 202 191 183 179 172 169 168 173 172 176 164 183 183 191 182 190 202 223 222 177 146 136 152 143 138 145 165 222 258 247 261 273 294 294 300 301 294 300 308 319 326 324
201 195 184 181 171 168 166 164 167 164 163 174 180 179 193 207 224 196 195 172 153 163 153 158 165 172 193 222 237 236 262 276 287 291 281 292 286 298 306 317 325 327 339
194 191 181 172 166 164 162 168 162 163 167 169 172 184 189 176 175 182 169 163 154 154 159 165 179 189 252 221 222 250 265 287 296 301 290 277 298 330 330 341 346 347 339
192 181 174 166 163 163 167 155 159 160 164 167 175 170 160 177 169 160 165 164 165 166 163 161 200 221 193 206 224 264 283 295 300 307 317 332 319 344 359 4 347 333 332
186 175 165 162 160 164 153 153 156 161 160 165 161 168 180 175 167 162 162 164 158 167 166 180 176 174 190 215 263 289 299 301 318 73 50 16 350 1 0 353 332 315 322
171 165 152 153 153 152 148 152 147 160 156 157 174 177 171 161 162 162 164 163 169 171 174 172 175 181 219 270 282 286 307 345 32 47 31 351 6 331 344 332 322 324 320
162 143 149 145 149 148 154 155 158 159 170 175 175 170 159 155 153 155 164 172 173 174 171 171 177 201 243 269 280 301 39 67 61 2 27 342 332 356 342 349 324 327 330
128 138 144 145 152 154 155 158 163 167 172 171 168 156 149 150 152 155 162 164 164 162 166 173 198 238 235 201 162 133 96 71 46 254 269 333 345 353 341 340 336 333 331
137 134 135 145 148 150 154 158 160 165 166 165 160 155 152 153 150 147 147 149 153 157 164 181 196 179 156 158 148 140 80 140 213 240 320 337 346 343 340 345 335 332 336
135 132 135 142 148 150 154 157 158 158 159 157 150 149 149 148 147 145 145 146 146 151 155 164 164 158 167 169 168 150 131 210 232 327 359 315 341 343 339 341 331 333 329
126 129 137 144 150 152 152 155 153 152 155 148 144 144 146 143 143 141 141 145 148 152 149 143 141 139 130 126 137 143 165 173 122 334 327 350 340 339 332 330 328 325 330
131 132 135 140 145 147 148 147 147 149 152 147 143 141 139 131 130 131 132 133 133 127 118 114 113 109 104 96 95 119 152 231 291 307 328 2 332 325 324 328 334 333 325
126 127 128 129 133 135 136 132 132 134 133 131 131 128 128 126 123 125 127 122 116 113 110 105 98 93 87 78 74 74 79 52 12 313 338 349 324 329 331 333 327 328 323
125 126 125 125 126 129 129 130 129 128 128 128 128 129 128 125 122 120 118 115 111 102 96 95 93 81 77 67 62 81 51 35 18 329 329 332 329 328 327 328 327 328 325
123 122 123 125 124 127 128 127 127 127 126 127 127 124 125 125 123 119 114 107 100 96 88 82 77 75 61 52 50 77 35 14 3 12 354 334 336 333 336 340 337 334 334
119 120 121 121 123 127 128 124 125 123 123 124 124 125 128 125 123 117 112 107 106 91 77 70 64 57 59 47 45 64 50 46 15 359 351 329 342 343 342 340 343 343 346
118 120 120 120 123 126 126 123 120 121 122 122 122 122 122 121 122 123 116 109 97 83 73 77 74 62 53 52 42 35 29 34 31 10 350 342 345 345 344 349 347 352 7
117 119 118 118 119 122 124 120 119 123 122 120 121 118 117 119 121 118 113 102 88 76 76 84 82 76 60 23 12 19 16 22 25 7 1 357 0 8 360 355 8 9 360
115 117 117 117 116 119 122 120 121 122 123 122 122 121 120 121 116 106 99 90 79 83 81 81 81 69 52 45 42 21 16 4 17 13 353 9 13 4 4 4 2 1 2
113 116 116 117 117 119 119 121 123 125 123 122 122 121 119 118 118 115 100 89 103 112 94 86 95 77 56 45 39 30 28 28 32 35 14 13 11 8 6 5 3 1 4
115 114 114 113 115 115 116 120 124 127 126 123 123 126 123 118 115 112 115 101 98 99 96 101 90 72 60 48 39 38 34 38 59 31 23 17 13 9 5 4 2 1 359
Wind_Speed_850mb
39 44 47 55 58 62 58 55 57 55 58 55 41 32 30 30 26 21 22 23 19 20 31 20 25 25 24 27 25 21 13 8 10 23 36 35 37 34 25 23 26 27 32
35 45 51 59 62 64 60 58 58 58 57 38 32 28 27 27 23 21 20 19 18 21 23 27 27 27 29 27 25 20 13 5 14 33 34 25 26 26 25 24 27 31 33
38 51 58 66 62 62 64 62 63 61 49 38 37 34 30 28 32 28 29 26 25 23 23 25 25 26 24 9 16 12 16 22 19 27 20 18 22 28 23 24 26 32 26
44 51 62 64 67 62 58 54 57 54 45 45 36 35 29 36 36 32 30 32 29 25 26 29 20 23 32 28 17 33 24 25 17 26 25 26 28 15 27 26 30 28 21
51 55 64 65 65 61 56 52 52 48 48 47 34 43 44 39 34 30 31 30 27 19 17 20 18 21 20 17 16 30 26 19 17 19 22 22 18 16 19 32 39 27 25
53 55 63 62 64 59 56 53 54 52 48 46 49 40 39 35 28 25 24 23 29 34 27 30 30 35 23 15 12 16 13 14 16 19 20 13 12 17 20 26 28 27 25
58 62 71 70 66 64 60 56 58 58 56 56 46 38 31 24 16 24 28 40 41 33 41 36 36 25 18 10 11 11 12 15 19 18 15 13 10 11 13 17 26 32 23
56 66 73 69 69 68 64 69 67 65 57 50 42 36 32 26 34 34 33 32 48 46 34 32 23 14 15 13 12 13 14 16 19 18 13 7 7 6 9 13 20 27 19
56 71 75 71 70 69 72 70 68 58 55 49 44 41 36 40 40 40 44 52 49 45 22 22 17 16 17 14 10 12 15 16 13 13 8 2 5 6 11 14 15 15 24
63 73 77 71 69 75 71 69 62 62 57 52 48 50 43 44 39 40 43 48 46 34 25 15 20 19 14 8 8 13 12 10 5 3 4 4 7 10 11 15 15 17 19
71 74 71 73 71 80 75 73 61 62 61 61 58 48 51 47 46 50 56 53 36 29 19 20 17 11 6 8 10 8 7 5 6 6 6 7 10 6 8 9 14 17 22
76 78 83 83 87 87 76 72 68 69 70 62 53 57 54 51 50 56 57 47 37 28 24 19 13 8 8 8 4 1 3 6 6 4 3 6 7 11 15 13 19 20 26
71 85 87 88 83 79 78 72 70 67 63 60 63 61 59 53 50 49 48 40 34 30 23 15 9 7 6 5 4 5 4 6 2 5 2 6 11 13 15 16 20 22 30
70 76 84 90 84 78 75 72 67 65 66 66 68 61 55 51 49 48 43 39 31 24 16 10 7 7 7 7 6 4 4 1 1 4 3 8 15 19 21 20 22 26 33
66 76 88 89 85 83 81 75 72 68 68 73 68 63 61 57 53 46 41 35 26 18 12 11 11 11 10 9 10 5 3 2 3 3 5 16 22 27 27 24 32 38 33
70 75 82 89 89 87 83 78 75 75 75 75 68 67 62 54 47 42 36 29 23 20 18 18 16 13 11 8 7 9 5 5 1 3 9 11 21 22 28 29 36 40 44
79 83 88 90 89 86 82 77 74 76 75 76 72 64 56 49 43 38 32 28 24 22 20 19 16 14 13 11 10 7 6 7 7 10 12 12 17 24 27 32 35 35 48
84 89 92 90 88 84 80 75 67 69 66 62 58 52 49 47 41 36 31 28 26 24 23 21 18 14 12 11 10 7 4 3 3 7 10 13 22 30 38 41 36 36 34
87 92 93 87 78 73 71 69 66 64 61 58 54 49 46 44 40 36 33 30 29 25 23 20 18 15 13 12 11 12 5 4 5 13 14 18 29 39 43 44 43 41 34
93 94 86 77 75 69 68 69 66 62 59 54 51 47 43 41 39 37 33 31 28 27 20 18 15 13 11 9 8 10 5 6 7 12 22 27 31 36 40 42 43 44 46
84 79 74 74 70 67 67 68 63 59 54 51 47 45 44 43 38 35 30 27 24 22 19 16 16 13 12 12 12 10 12 8 9 12 15 26 37 40 43 44 43 41 42
75 71 76 71 64 61 64 65 61 55 52 52 47 42 39 36 32 30 27 24 21 18 17 16 15 16 17 20 20 19 18 15 13 15 20 29 35 38 37 36 37 35 36
73 69 71 67 58 55 55 63 56 53 52 49 45 41 38 36 31 29 24 21 16 15 14 15 15 16 15 20 31 28 30 25 18 22 28 30 35 36 31 40 43 38 34
69 66 64 61 59 54 56 58 54 51 50 48 43 39 37 36 31 26 21 20 19 17 18 17 15 14 16 18 17 18 20 26 20 24 25 33 37 38 35 33 33 33 34
63 58 57 57 56 53 55 52 49 48 48 44 40 38 36 34 31 27 26 21 19 24 18 17 16 14 15 25 26 21 24 23 24 25 22 25 28 30 32 33 35 35 37
56 56 52 54 51 50 50 47 43 42 44 42 37 35 34 30 28 27 28 26 29 27 27 24 20 23 24 24 23 26 29 26 28 24 26 28 30 32 34 35 36 37 40
Wind_Direction_850mb
234 219 208 200 193 188 187 186 183 186 188 197 191 189 188 183 186 183 191 205 195 199 208 201 212 211 197 192 200 189 176 213 299 324 293 295 284 276 270 292 309 312 324
228 211 199 196 192 186 186 187 185 186 194 186 176 178 176 177 173 176 178 180 185 192 191 201 217 221 212 203 188 175 147 353 312 289 291 300 287 284 294 290 309 309 324
222 201 197 196 189 186 187 188 189 195 188 173 165 157 162 161 161 169 180 184 182 196 210 222 228 237 207 131 158 189 297 288 302 286 282 300 295 308 285 297 317 319 329
223 205 195 191 186 182 183 182 185 192 176 171 163 161 164 181 184 196 200 199 205 216 229 252 265 222 199 179 250 277 254 292 269 284 281 279 282 304 308 303 318 326 335
212 206 195 186 181 177 176 175 178 177 182 168 159 169 182 192 188 194 200 212 246 239 191 169 163 207 181 168 173 198 261 266 269 276 291 301 306 302 299 310 324 331 327
208 202 191 183 179 172 169 168 173 172 176 164 183 183 191 182 190 202 223 222 177 146 136 152 143 138 145 165 222 258 247 261 273 294 294 300 301 294 300 308 319 326 324
201 195 184 181 171 168 166 164 167 164 163 174 180 179 193 207 224 196 195 172 153 163 153 158 165 172 193 222 237 236 262 276 287 291 281 292 286 298 306 317 325 327 339
194 191 181 172 166 164 162 168 162 163 167 169 172 184 189 176 175 182 169 163 154 154 159 165 179 189 252 221 222 250 265 287 296 301 290 277 298 330 330 341 346 347 339
192 181 174 166 163 163 167 155 159 160 164 167 175 170 160 177 169 160 165 164 165 166 163 161 200 221 193 206 224 264 283 295 300 307 317 332 319 344 359 4 347 333 332
186 175 165 162 160 164 153 153 156 161 160 165 161 168 180 175 167 162 162 164 158 167 166 180 176 174 190 215 263 289 299 301 318 73 50 16 350 1 0 353 332 315 322
171 165 152 153 153 152 148 152 147 160 156 157 174 177 171 161 162 162 164 163 169 171 174 172 175 181 219 270 282 286 307 345 32 47 31 351 6 331 344 332 322 324 320
162 143 149 145 149 148 154 155 158 159 170 175 175 170 159 155 153 155 164 172 173 174 171 171 177 201 243 269 280 301 39 67 61 2 27 342 332 356 342 349 324 327 330
128 138 144 145 152 154 155 158 163 167 172 171 168 156 149 150 152 155 162 164 164 162 166 173 198 238 235 201 162 133 96 71 46 254 269 333 345 353 341 340 336 333 331
137 134 135 145 148 150 154 158 160 165 166 165 160 155 152 153 150 147 147 149 153 157 164 181 196 179 156 158 148 140 80 140 213 240 320 337 346 343 340 345 335 332 336
135 132 135 142 148 150 154 157 158 158 159 157 150 149 149 148 147 145 145 146 146 151 155 164 164 158 167 169 168 150 131 210 232 327 359 315 341 343 339 341 331 333 329
126 129 137 144 150 152 152 155 153 152 155 148 144 144 146 143 143 141 141 145 148 152 149 143 141 139 130 126 137 143 165 173 122 334 327 350 340 339 332 330 328 325 330
131 132 135 140 145 147 148 147 147 149 152 147 143 141 139 131 130 131 132 133 133 127 118 114 113 109 104 96 95 119 152 231 291 307 328 2 332 325 324 328 334 333 325
126 127 128 129 133 135 136 132 132 134 133 131 131 128 128 126 123 125 127 122 116 113 110 105 98 93 87 78 74 74 79 52 12 313 338 349 324 329 331 333 327 328 323
125 126 125 125 126 129 129 130 129 128 128 128 128 129 128 125 122 120 118 115 111 102 96 95 93 81 77 67 62 81 51 35 18 329 329 332 329 328 327 328 327 328 325
123 122 123 125 124 127 128 127 127 127 126 127 127 124 125 125 123 119 114 107 100 96 88 82 77 75 61 52 50 77 35 14 3 12 354 334 336 333 336 340 337 334 334
119 120 121 121 123 127 128 124 125 123 123 124 124 125 128 125 123 117 112 107 106 91 77 70 64 57 59 47 45 64 50 46 15 359 351 329 342 343 342 340 343 343 346
118 120 120 120 123 126 126 123 120 121 122 122 122 122 122 121 122 123 116 109 97 83 73 77 74 62 53 52 42 35 29 34 31 10 350 342 345 345 344 349 347 352 7
117 119 118 118 119 122 124 120 119 123 122 120 121 118 117 119 121 118 113 102 88 76 76 84 82 76 60 23 12 19 16 22 25 7 1 357 0 8 360 355 8 9 360
115 117 117 117 116 119 122 120 121 122 123 122 122 121 120 121 116 106 99 90 79 83 81 81 81 69 52 45 42 21 16 4 17 13 353 9 13 4 4 4 2 1 2
113 116 116 117 117 119 119 121 123 125 123 122 122 121 119 118 118 115 100 89 103 112 94 86 95 77 56 45 39 30 28 28 32 35 14 13 11 8 6 5 3 1 4
115 114 114 113 115 115 116 120 124 127 126 123 123 126 123 118 115 112 115 101 98 99 96 101 90 72 60 48 39 38 34 38 59 31 23 17 13 9 5 4 2 1 359